Погода в Сан-Вито-Ло-Капе

Италия     38°10′14″N   12°44′04″E
темп.,
°C
ветер,
м/с
пор.,
м/с
влажн.,
%
обл.,
%
осадки,
мм/ч
давл.,
гПа
погр.,
м
6 декабря, пн
пн601:00+13зюз111271100 2.6 10031055
04:00+13зюз111267100 3.4 10021605
07:00+13зсз13146796 5.4 10021715
10:00+13зсз11126189 1.1 10031617
13:00+13зсз1212615 1.4 10021637
16:00+12зсз141573100 2.6 10011626
19:00+13с161877100 10.2 10031779
22:00+13с131468100 1.4 10071694
7 декабря, вт
вт701:00+13сз14156254 2.1 10101849
04:00+14сз15155668 0.1 10122276
07:00+14сз12135632 0.3 10132198
10:00+14сз1112585 0.1 10141815
13:00+14зсз101263100 0.6 10131328
16:00+15зсз9126394 0.1 10131776
19:00+15сз912663 0.1 10151461
22:00+14сз466558 0.0 10161126
8 декабря, ср
ср801:00+15юз56699 0.0 1015860
04:00+15юз798116 0.1 1014720
07:00+15ююз710859 0.3 1013669
10:00+15ююз710785 0.0 1013544
13:00+17ююз811695 0.0 1011361
16:00+16ююз811725 0.0 1011413
19:00+15ююз79775 0.0 1011409
22:00+15ююз69775 0.0 1010473
9 декабря, чт
чт901:00+15юз7107773 0.3 1009848
04:00+13з131480100 4.4 10091179
07:00+12зюз8979100 5.9 1008883
10:00+12зюз131774100 7.9 10091492
13:00+14з141659100 7.9 10091824
16:00+13з13146090 0.3 10101696
19:00+13з1112535 0.4 10111799
22:00+13зюз111358100 0.2 10121826
10 декабря, пт
пт1001:00+13зюз13156884 1.1 10121493
04:00+13зюз111270100 1.1 10111254
07:00+13юз9107452 1.9 10111022
10:00+14юз71075100 0.8 1012939
13:00+14ююз91276100 1.6 10091073
16:00+13ю91483100 7.8 10071051
19:00+14юз172088100 15.4 10051474
22:00+15юз161977100 1.3 10041583